Location: Philipsburg
(46.3359°N, 113.2993°W)
Time: 13:58:06
(UTC+00:00)

Envisat - Pass Details

Date: 21 January 2022
Orbit: 764 x 765 km, 98.2° (Epoch: 17 May)

Event Time Altitude Azimuth Distance (km) Brightness Sun altitude
Rises 12:24:44 0° 15° (NNE) 3,241 6.4 -27.8°
Reaches altitude 10° 12:27:03 10° 17° (NNE) 2,311 5.6 -27.4°
Maximum altitude 12:32:09 74° 102° (ESE) 799 3.1 -26.6°
Drops below altitude 10° 12:37:13 10° 188° (S) 2,295 5.4 -25.7°
Sets 12:39:31 0° 190° (S) 3,217 6.2 -25.3°
